STARLINK-32077, 60344

Orbit data source: Space-Track

STARLINK-32077, 60344 is a payload satellite owned by SpaceX/Seattle (US) in LEO that was launched on Fri, 02 Aug 2024 UTC via an FALCON 9 launch vehicle from the Air Force Eastern Test Range (AFETR). Payload-class satellites include a variety of spacecraft equipped with specific instruments for various scientific and technological missions. These include communications satellites like Starlink; space stations such as the ISS; scientific satellites like the Hubble; Earth observation satellites from companies like Planet Labs, Umbra, and HawkEye 360; GPS; miniature CubeSats for education and research; and military/defense satellites.

Loading next visibility...
Identifier
60344, 2024-136R
Orbit
LEO
Country
Flag of USUS
Related business
Manufacturer
SpaceX/Seattle
Mission
Operational Commercial Communications
Bus & Motor
STARLINK V2M, Unknown motor
Mass
730 kg wet, ~700 kg dry
Launch date (UTC)
2024-08-02 (2 years ago)
Launch vehicle
FALCON 9
Launch site
Air Force Eastern Test Range (AFETR)
Object type
Payload
Rocket body
Debris
Shape & HBR
Box + 2 Pan, 17.7 m
Radar Cross Section
33.884 m², Large (>1 m²)

Expand to show TLE details & history
Last TLE update: 22 hours ago

TLE from 22 hours ago
0 STARLINK-32077
1 60344U 24136R   26124.51693049 -.00000195  00000-0  55557-5 0  9993
2 60344  53.1603 176.2283 0001131  88.3640 271.7491 15.30189062 98217
Epoch: 2026-05-04T12:24Z
TLE epoch observation values (Epoch: 2026-05-04T12:24:22.794Z)
Latitude
0.00004°
Longitude
127.72836°
Altitude
476.124 km
Speed
7.629 km/s
True Right ascension
11h 44m 54s
True Declination
0° 00' 00"
Sunlit
Object was in full shadow at epoch
Visualization orbit readout
Latitude
Unknown
Longitude
Unknown
Altitude
Unknown
Speed
Unknown
Apparent Right ascension
Unknown
Apparent Declination
Unknown
Sunlit
N/A
Visualization observer readout
Local Sidereal Time
17:49:52
Azimuth
Unknown
Elevation
Unknown
Doppler factor
Unknown
Orbital elements
Apogee altitude
476.279 km
Perigee altitude
474.729 km
Semi-major axis
6,853.641 km
Eccentricity
0.00011
Inclination
53.1603°
RAAN
176.2283°
Arg. of periapsis
88.364°
True anomaly
271.73615°
Mean anomaly
271.7491°
Eccentric anomaly
271.74262°
Mean motion
3.82526 °/min
Orbital period
94.11 mins
BSTAR
0.0000055557
Loading maneuver chart data...
Computing Atmospheric mass density...
Loading historical data...
Loading historical data...
Loading historical data...
Loading historical data...
Loading historical data...
Loading historical data...
Loading historical data...

Documentation

Showing up to 5 results
|